Location: Northwest Suburban Astronomers
(42.1100°N, 88.0300°W)
Time: 09:09:46
(UTC-05:00)

Daily predictions for brighter satellites

Satellite Brightness Start Highest point End
(mag) Time Altitude Azimuth Time Altitude Azimuth Time Altitude Azimuth
CENTAUR R/B 3.2 20:40:22 10° NW 20:48:15 87° WSW 20:56:35 10° SSE
Cosmos 2056 Rocket 3.6 20:43:23 10° S 20:48:24 53° ESE 20:53:22 10° NNE
Cosmos 1371 Rocket 4.0 20:45:16 10° SSW 20:50:35 76° ESE 20:55:52 10° NNE
Cosmos 1674 Rocket 4.0 20:49:23 10° N 20:53:41 44° ENE 20:57:55 10° SSE
Sich 1 Rocket 4.4 20:50:38 10° SSE 20:54:45 34° E 20:58:53 10° NNE
COSMOS 2406 3.3 20:57:30 10° NNW 21:03:18 87° ENE 21:09:01 10° SSE
NOSS 2-2 (D) 3.5 20:59:23 10° SSW 21:03:29 78° ESE 21:08:15 10° NE
ATLAS 5 CENTAUR R/B 2.5 20:58:04 10° NW 21:04:06 85° WSW 21:10:33 10° SSE
SL-27 R/B 2.6 21:01:56 10° NNW 21:05:35 61° ENE 21:09:08 10° SSE
COS B Rocket 4.2 21:03:02 10° NNE 21:06:48 32° E 21:10:09 11° SSE
SJ-11-01 4.4 21:05:51 10° S 21:10:36 81° WSW 21:15:23 10° NNW
ALOS 4.1 21:08:44 10° SSW 21:12:51 31° W 21:17:00 10° NNW
COSMOS 2487 4.2 21:10:51 10° NNE 21:13:39 21° ENE 21:15:53 13° ESE
PSLV R/B 4.3 21:12:35 14° SE 21:14:31 27° ENE 21:17:05 10° NNE
Cosmos 1238 Rocket 3.5 21:15:21 10° NNE 21:18:07 27° E 21:20:11 16° SE
NOSS 2-2 (C) 3.8 21:14:05 10° SW 21:18:11 76° NW 21:23:00 10° NNE
Coronas F rocket 2.8 21:16:05 10° SSW 21:18:34 37° W 21:21:06 10° N
Cosmos 2278 Rocket 2.9 21:13:52 10° SSE 21:18:50 33° ESE 21:23:50 10° NE
EO 1 Delta rocket 4.4 21:12:42 10° NNE 21:19:05 61° E 21:24:10 10° S
Meteor 1-10 Rocket 4.4 21:14:45 10° NNW 21:20:37 83° W 21:26:21 10° S
Cosmos 1844 3.9 21:16:46 10° S 21:22:21 54° ESE 21:27:59 10° NNE
Cosmos 1975 Rocket 4.1 21:18:51 10° NNE 21:22:37 29° ENE 21:25:16 16° SE
SPOT 5 3.2 21:17:34 10° SSE 21:22:39 62° ENE 21:27:57 10° N
Cosmos 1825 2.9 21:21:19 13° SSE 21:24:22 35° E 21:27:53 10° NNE
ISS -2.0 21:22:05 10° S 21:24:33 20° SE 21:25:57 16° E
Envisat 3.0 21:20:37 10° SSE 21:25:41 90° WSW 21:30:49 10° NNW
Cosmos 1844 Rocket 2.6 21:21:22 10° SSW 21:27:01 79° ESE 21:32:41 10° NNE
Cosmos 1862 3.6 21:24:11 10° SSE 21:28:06 48° E 21:32:03 10° NNE
Terra 3.8 21:25:47 10° E 21:28:20 15° ENE 21:30:53 10° NNE
deb Chang Zheng 4 3.6 21:26:29 10° NNE 21:30:54 87° WNW 21:35:20 10° SSW
ERBS 3.6 21:28:04 10° WNW 21:31:14 33° SW 21:33:42 14° S
YAOGAN 6 3.0 21:29:22 19° SE 21:31:33 43° ENE 21:34:54 10° N
Cosmos 1408 3.0 21:29:47 15° SSE 21:32:35 43° E 21:36:04 10° NNE
Cosmos 1908 Rocket 3.5 21:28:15 10° S 21:32:37 67° E 21:37:01 10° NNE
Cosmos 2154 Rocket 4.0 21:27:50 10° S 21:34:01 70° E 21:40:12 10° NNE
Cosmos 1733 Rocket 4.1 21:32:29 10° SSW 21:36:45 47° WNW 21:41:00 10° N
Cosmos 1378 Rocket 3.5 21:33:07 10° N 21:37:24 65° E 21:40:33 18° SSE
Cosmos 2082 Rocket 3.7 21:32:59 10° N 21:37:34 24° NE 21:41:15 13° E
H-2A R/B 3.5 21:34:39 15° ESE 21:37:46 24° ENE 21:41:56 10° NNE
MetOp-A 4.1 21:34:31 14° SSE 21:39:06 74° ENE 21:44:28 10° N
USA 245 3.6 21:40:06 25° ESE 21:41:30 40° ENE 21:45:07 10° N
SL-8 R/B 4.1 21:37:35 10° WSW 21:42:22 65° NNW 21:47:10 10° ENE
Cosmos 1242 Rocket 3.6 21:39:18 10° N 21:42:36 31° ENE 21:43:57 24° ESE
GPS 2-05 Rocket1 4.4 21:40:50 10° SW 21:43:27 20° S 21:43:27 20° S
Cosmos 407 Rocket 3.7 21:38:46 10° NNW 21:44:01 72° WSW 21:48:30 15° S
STPSAT 2 (USA 217) 4.5 21:41:19 10° SSW 21:45:48 81° ESE 21:50:18 10° NNE
BREEZE-M DEB (TANK) 4.1 21:44:07 10° W 21:45:53 19° SSW 21:47:09 16° S
ERS-1 Rocket 4.3 21:44:20 10° SSW 21:48:57 36° W 21:53:37 10° NNW
Cosmos 2084 3.2 21:45:42 10° SSW 21:49:28 54° ESE 21:53:13 10° NE
Meteor 1-27 Rocket 3.8 21:44:38 10° NNW 21:50:14 79° W 21:55:04 14° S
Cosmos 1452 Rocket 3.4 21:46:12 10° SSW 21:51:27 84° ESE 21:56:46 10° NNE
Cosmos 2297 4.5 21:48:47 21° SSE 21:51:31 31° ESE 21:56:28 10° NE
SPOT 1/Viking Rocket 3.6 21:49:14 21° SSE 21:52:43 66° ENE 21:57:54 10° N
SL-08 RB Rocket 4.2 21:51:07 24° SE 21:53:30 46° ENE 21:57:56 10° N
Cosmos 1782 4.3 21:51:32 10° NNW 21:55:12 34° W 21:58:52 10° SSW
Cosmos 1140 Rocket 3.7 21:50:27 10° NNW 21:55:31 56° ENE 21:58:17 26° SE
Cosmos 1606 3.5 21:56:46 10° NNW 22:00:35 50° W 22:03:33 16° SSW
H-2A R/B 3.5 21:58:38 10° SSW 22:02:35 34° W 22:06:30 10° NNW
NOAA 11 4.2 21:59:37 24° SSE 22:03:01 70° ENE 22:08:31 10° N
UNK 4.5 22:00:28 10° NNE 22:06:45 89° W 22:12:44 10° SSW
Atlas Centaur 2 3.4 22:06:07 10° SSW 22:06:28 11° SSW 22:06:28 11° SSW
USA 234 3.5 22:01:46 10° ENE 22:07:53 41° SE 22:13:57 10° SSW
CZ-4B R/B 3.3 22:04:26 10° NNE 22:09:25 77° ESE 22:13:01 18° S
CZ-4 R/B 3.7 22:11:13 10° NNE 22:15:53 66° ESE 22:18:11 29° S
Cosmos 1184 Rocket 3.6 22:18:32 21° SW 22:20:27 49° WNW 22:23:43 10° N
Cosmos 1850 Rocket 4.0 22:19:00 10° NNW 22:24:20 76° ENE 22:26:29 37° SSE
BREEZE-M DEB (TANK) 4.0 22:23:26 10° NW 22:25:11 20° N 22:27:46 10° NE
Okean 2 Rocket 3.4 22:22:51 20° SSW 22:25:52 65° W 22:30:16 10° N
DMSP B5D2-2 4.4 22:23:02 10° NNE 22:28:03 45° E 22:29:16 38° SE
Cosmos 2218 Rocket 4.0 22:25:46 26° S 22:29:37 74° E 22:36:01 10° N
IGS 5A 3.8 22:32:35 44° ESE 22:33:13 49° ENE 22:37:14 10° N
DELTA 2 DEB (DPAF) 4.0 22:36:15 48° SSE 22:37:29 89° E 22:41:59 10° NNW
SL-08 R/B 4.5 22:34:06 27° S 22:37:53 82° E 22:44:24 10° N
Meteor 1-25 Rocket 4.4 22:39:52 40° SSE 22:41:47 59° E 22:47:31 10° NNE
Cosmos 1741 Rocket 4.0 22:38:13 10° NNW 22:43:28 76° WSW 22:45:10 43° S
ARGOS 3.8 22:42:39 26° SSW 22:45:26 49° W 22:50:38 10° NNW
Cosmos 1727 Rocket 3.9 22:39:34 10° N 22:45:45 76° E 22:48:04 41° SSE
COSMOS 2487 4.3 22:46:15 10° NW 22:49:13 24° W 22:49:57 23° WSW
Landsat 7 4.0 22:48:20 44° SSW 22:49:45 68° WSW 22:54:31 10° NNW
Meteor 1-18 Rocket 4.3 22:46:00 10° N 22:51:56 82° E 22:53:54 45° SSE
USA 229 DEB 3.8 22:46:08 10° NNW 22:53:16 74° NE 22:56:14 38° SE
USA 229 3.8 22:46:14 10° NNW 22:53:22 73° NE 22:56:21 38° SE
Meteor 1-14 Rocket 4.5 22:50:48 24° SSW 22:54:15 67° WNW 22:59:51 10° N
Cosmos 1331 Rocket 4.3 22:58:07 46° ESE 22:58:07 46° ESE 23:03:00 10° NNE
APEX 4.1 22:57:54 28° SW 22:59:49 55° WNW 23:04:46 10° NNE
ISS -1.4 22:57:35 10° WSW 23:05:24 - NE 22:59:03 23° W
DNEPR-1 R/B 4.2 22:55:49 10° NW 23:00:57 50° WSW 23:01:40 45° SSW
CARTOSAT-1 3.6 23:01:47 60° SW 23:02:18 67° WSW 23:06:37 10° NNW
Timation 2 Rocket 4.4 22:56:59 10° NW 23:02:44 50° WSW 23:04:45 36° SSW
Cosmos 1110 Rocket 4.0 23:02:20 57° SE 23:02:45 58° ESE 23:07:52 10° NNE
Cosmos 2278 Rocket 3.6 22:57:34 10° SW 23:02:48 38° WNW 23:08:05 10° N
Cosmos 1833 Rocket 2.6 22:59:23 10° NNW 23:05:02 85° ENE 23:06:17 56° SSE
Terra 1.9 23:04:36 54° SSW 23:05:30 68° WSW 23:10:16 10° NNW
Spot 4 3.8 23:08:31 65° S 23:09:14 83° WSW 23:14:08 10° NNW
Cosmos 1339 Rocket 4.4 23:06:56 10° N 23:13:04 81° W 23:14:57 48° S
Meteor 2-19 Rocket 4.4 23:11:00 41° SSW 23:13:18 81° W 23:19:28 10° N
Cosmos 1536 Rocket 4.0 23:08:58 10° NNW 23:13:21 55° W 23:13:54 51° WSW
Cosmos 1812 3.0 23:12:17 10° N 23:15:44 66° NW 23:15:44 66° NW
H-2A R/B 2.7 23:15:17 38° SW 23:16:51 49° W 23:22:02 10° NNW
ASTEX 1 3.2 23:13:09 10° N 23:18:08 87° E 23:18:38 72° S
Lacrosse 5 4.0 23:22:41 15° ENE 23:22:41 15° ENE 23:23:39 10° ENE
Cosmos 2082 Rocket 2.5 23:16:27 10° NNW 23:22:02 56° WSW 23:23:06 48° SSW
Cosmos 1821 Rocket 4.2 23:21:38 47° ESE 23:22:27 50° E 23:28:27 10° NNE
Meteor 1-11 Rocket 4.0 23:22:41 51° ESE 23:23:08 53° E 23:28:46 10° NNE
Timation 1 Rocket 4.2 23:22:04 52° SSW 23:23:40 84° ESE 23:29:42 10° NNE
Cosmos 1486 Rocket 4.2 23:20:12 10° NNW 23:25:30 59° ENE 23:26:01 56° E
Gbstr 26 Del rocket 3.8 23:26:12 10° NW 23:30:49 44° NNE 23:31:25 41° NE
Cosmos 2123 Rocket 4.4 23:32:10 10° N 23:38:13 48° ENE 23:39:07 45° ESE
Cosmos 1934 Rocket 4.0 23:38:39 54° ESE 23:39:06 55° E 23:45:00 10° NNE
Cosmos 1536 4.2 23:43:44 33° NE 23:43:44 33° NE 23:46:12 10° NNE
NOSS 3-1 (C) 4.2 23:35:33 10° NNW 23:43:01 64° NE 23:46:10 39° ESE
CZ-3 Stage 3 4.5 23:13:28 10° W 23:44:08 39° SSW 23:45:23 38° SSW
Cosmos 1400 Rocket 3.9 23:45:55 40° NNE 23:45:55 40° NNE 23:48:45 10° NNE
Meteor 2-21 Rocket 4.3 23:47:15 66° SE 23:47:54 71° E 23:54:05 10° NNE
ALOS 2 3.7 23:49:23 37° NE 23:49:23 37° NE 23:52:56 10° N
USA 234 3.7 23:44:36 10° NE 23:51:02 61° NW 23:57:26 10° WSW
Meteor 2-16 Rocket 4.4 23:50:50 60° ESE 23:51:15 61° E 23:57:16 10° NNE
